Showing default

HULIANWANG DIGUI-13, 62973

Orbit data source: Space-Track

HULIANWANG DIGUI-13, 62973 is a payload satellite owned by Zhongguo Xingwang (CN) in LEO that was launched on Tue, 11 Feb 2025 UTC via a CHANG ZHENG 8A launch vehicle from the Wenchang Satellite Launch Center (WSC). Payload-class satellites include a variety of spacecraft equipped with specific instruments for various scientific and technological missions. These include communications satellites like Starlink; space stations such as the ISS; scientific satellites like the Hubble; Earth observation satellites from companies like Planet Labs, Umbra, and HawkEye 360; GPS; miniature CubeSats for education and research; and military/defense satellites.

Loading next visibility...
Identifier
62973, 2025-030C
Orbit
LEO
Last TLE update
13 hours ago
Origin
Manufacturer
CAST
Mission
Operational Civil Communications
Bus & Motor
HWHD, Unknown motor
Mass
~800 kg wet, ~800 kg dry
Launch date (UTC)
2025-02-11 (5 months ago)
Launch vehicle
CHANG ZHENG 8A
Launch site
Wenchang Satellite Launch Center (WSC)
Object type
Payload
Rocket body
Debris
Shape & HBR
Box + 2 Pan, 10 m
Radar Cross Section
5.935 m², Large (>1 m²)

Expand to show TLE details & history

TLE from 13 hours ago
0 HULIANWANG DIGUI-13
1 62973U 25030C   25181.91418995 -.00000096  00000-0  60461-4 0  9997
2 62973  50.0038  55.7146 0000411 118.1034 241.9880 13.29330984 19135
Epoch: 2025-06-30T21:56Z
TLE epoch observation values (Epoch: 2025-06-30T21:56:26.011Z)
Latitude
-0°
Longitude
167.38905°
Altitude
1,149.939 km
Speed
7.279 km/s
True Right ascension
03h 42m 51s
True Declination
0° 00' 00"
Sunlit
Object was in daylight at epoch
Visualization orbit readout
Latitude
-19.52229°
Longitude
148.30568°
Altitude
1,154.585 km
Speed
7.276 km/s
Apparent Right ascension
05h 11m 53s
Apparent Declination
-44° 16' 38"
Sunlit
Object is in daylight
Visualization observer readout
Local Sidereal Time
22:04:56
Azimuth
120.456° SE
Elevation
-37.308°
Doppler factor
1
Orbital elements
Apogee altitude
1,150.302 km
Perigee altitude
1,149.683 km
Semi-major axis
7,528.13 km
Eccentricity
0.00004
Inclination
50.0038°
RAAN
55.7146°
Arg. of periapsis
118.1034°
True anomaly
Unknown
Mean anomaly
241.988°
Eccentric anomaly
Unknown
Mean motion
3.32286 °/min
Orbital period
108.34 mins
BSTAR
0.000060461
Loading maneuver chart data...
Loading SW <> Apogee altitude chart data...
Loading historical data...
Loading historical data...
Loading historical data...
Loading historical data...
Loading historical data...
Loading historical data...
Loading historical data...

HULIANWANG DIGUI-13 Visibility forecast

Observer location: undefined°, undefined°

Span
Click to sort rows by Start time (UTC) header in descending order
Start Az.
Max El. time (UTC)
Max El. Az.
Max El.
End time (UTC)
End Az.
5 mins2025-07-01 16:07:30.008Z140.38° SSE2025-07-01 16:09:30.008Z123.782° SE12.286°2025-07-01 16:12:30.008Z99.086° ESE
12 mins2025-07-01 17:56:30.008Z210.786° SW2025-07-01 18:02:30.008Z128.423° SE40.109°2025-07-01 18:08:30.008Z62.915° ENE
12 mins2025-07-01 19:50:30.008Z264.724° W2025-07-01 19:56:30.008Z350.397° N38.829°2025-07-01 20:02:30.008Z52.528° ENE
12 mins2025-07-01 21:45:30.008Z299.137° NW2025-07-01 21:50:30.008Z351.862° N31.33°2025-07-01 21:57:30.008Z66.515° ENE
12 mins2025-07-01 23:40:30.008Z310.71° NW2025-07-01 23:45:30.008Z11.5° NNE39.538°2025-07-01 23:52:30.008Z100.439° ESE
12 mins2025-07-02 01:34:30.008Z292.87° NW2025-07-02 01:39:30.008Z227.783° WSW39.077°2025-07-02 01:46:30.008Z149.045° SSE
|